sat.trackr.live / text

‹ back to catalog

STARLINK-34273

NORAD 64905 · 2025-157B

PAYLOAD ACTIVE UNKNOWN

§ Identity

Operator
Country
US
Launch date
2025-07-26
Launch site
AFETR
Launch vehicle
Mass (kg)
RCS (m²)

Purposes: comms

External: N2YO · Heavens-Above · Gunter

§ Orbital elements

Epoch: 2026-05-24T23:45:49.709088Z

Period
94.08 min
Inclination
53.1615°
Eccentricity
0.0004168
Mean motion
15.30576177 rev/d
Perigee alt
471.2 km
Apogee alt
476.9 km
Semi-major
6,852.2 km
B*
5.9058e-3
RAAN
351.4117°
Arg perigee
124.6045°
Mean anomaly
235.5349°
Rev number
4,781

§ Raw data

STARLINK-342731 64905U 25157B   26144.99015867  .00180984  00000+0  59058-2 0  99942 64905  53.1615 351.4117 0004168 124.6045 235.5349 15.30576177 47813

JSON: /api/v1/satellites/64905 · /tle

For live sub-satellite position, see the globe view (requires WebGL).

§ Visibility from observer

Set your observer location to see the next 7 days of passes ≥ 10°. The values pass through the URL so the page stays shareable.

No JS? Fill the form by hand. The geolocation button needs JavaScript.